Regional Weather Roundup
Issued by NWS

Home | Current Version | Previous Version | Text Only | Print | Product List | Glossary On
Versions: 1 2 3 4 5 6 7 8 9 10 11 12 13 14 15 16 17 18 19 20 21 22 23 24 25 26 27
000
ASUS45 KCYS 190710
RWRWY

WYOMING REGIONAL WEATHER ROUNDUP
NATIONAL WEATHER SERVICE CHEYENNE WY
100 AM MDT THU OCT 19 2017

NOTE:  "FAIR" INDICATES FEW OR NO CLOUDS BELOW 12,000 FEET
WITH NO SIGNIFICANT WEATHER AND/OR OBSTRUCTIONS TO VISIBILITY.

WYZ001-190800-
YELLOWSTONE NATIONAL PARK

CITY           SKY/WX    TMP DP  RH WIND       PRES   REMARKS
LK YELLOWSTONE   N/A     28  23  81 CALM      30.18S
W YELLOWSTONE  NOT AVBL

$$
WYZ002>013-054>058-071-098>099-190800-
NORTHERN WYOMING

CITY           SKY/WX    TMP DP  RH WIND       PRES   REMARKS
JACKSON        FAIR      36  23  59 SE5       30.14F WCI  32
CODY           FAIR      59  20  22 SW13G20   29.98F
GREYBULL       FAIR      41  23  48 CALM      29.95F
WORLAND        FAIR      44  25  47 SE3       29.95F
SHERIDAN       FAIR      42  29  59 SW5       29.89F
BUFFALO        FAIR      57   9  14 NE3       29.95F
GILLETTE       FAIR      56  18  22 SW15      29.91F
HULETT         FAIR      55  23  28 SW10      29.93F
NEWCASTLE      FAIR      52  23  32 SE9       29.99S

$$
WYZ014>020-022>026-101>103-190800-
CENTRAL WYOMING

CITY           SKY/WX    TMP DP  RH WIND       PRES   REMARKS
BIG PINEY      FAIR      24  14  65 CALM      30.20S
PINEDALE       FAIR      25  19  80 N7        30.20F WCI  17
DUBOIS         FAIR      37  19  48 NW16      30.13F WCI  28
LANDER         FAIR      51  18  27 CALM      30.03F
RIVERTON       FAIR      50  20  30 W7        30.04F
CASPER         FAIR      53  14  21 SW12      30.04S
DOUGLAS        FAIR      41  22  46 SE8       30.03F

$$
WYZ021-027>030-104>119-190800-
SOUTHERN WYOMING

CITY           SKY/WX    TMP DP  RH WIND       PRES   REMARKS
EVANSTON       FAIR      44  13  28 SE7       30.19F
KEMMERER       FAIR      34  19  55 NW10      30.20S WCI  26
FORT BRIDGER   FAIR      44   7  22 SW5       30.21F
ROCK SPRINGS   FAIR      45   8  22 CALM      30.17F
DIXON          FAIR      37  12  35 NE5       30.21F WCI  33
RAWLINS        FAIR      36  12  37 CALM      30.17F
SARATOGA       FAIR      36  12  38 SE7       30.19F WCI  30
LARAMIE        FAIR      35  15  44 SW8       30.19F WCI  29
CHEYENNE       FAIR      43  23  45 W7        30.15F
TORRINGTON     FAIR      41  28  60 E9        30.06F
PINE BLUFFS    FAIR      34  27  75 MISG      30.13F

$$




USA.gov is the U.S. government's official web portal to all federal, state and local government web resources and services.